Regional Weather Roundup
Issued by NWS

Home | Current Version | Previous Version | Text Only | Print | Product List | Glossary Off
Versions: 1 2 3 4 5 6 7 8 9 10 11 12 13 14 15 16 17 18 19 20 21 22 23 24 25 26 27 28 29 30 31 32 33 34 35 36 37 38 39 40 41 42 43 44 45 46 47 48 49 50

000
ASUS43 KBIS 170710
RWRND

NORTH DAKOTA REGIONAL WEATHER ROUNDUP
NATIONAL WEATHER SERVICE BISMARCK ND
200 AM CDT THU APR 17 2014

NOTE: "FAIR" INDICATES FEW OR NO CLOUDS BELOW 12,000 FEET WITH NO
SIGNIFICANT WEATHER AND/OR OBSTRUCTIONS TO VISIBILITY.


NDZ001>003-009>011-017-170800-
NORTHWEST NORTH DAKOTA

CITY           SKY/WX    TMP DP  RH WIND       PRES   REMARKS
WILLISTON        N/A    N/A N/A N/A MISG      30.26F
MINOT          CLOUDY    24  14  65 E9        30.31S WCI  14
MINOT AFB      CLOUDY    24  15  68 E12       30.32R WCI  13
$$

NDZ018>021-031>035-040>046-170800-
SOUTHWEST NORTH DAKOTA

CITY           SKY/WX    TMP DP  RH WIND       PRES   REMARKS
BISMARCK       CLOUDY    29  16  58 E9        30.29R
DICKINSON      CLOUDY    27  21  78 E7        30.19F WCI  19
GARRISON         N/A     26  15  63 E13       30.28S WCI  15
HETTINGER ARPT CLOUDY    28  20  71 E6        30.21R
$$

NDZ004>008-012>016-024-026-027-054-170800-
NORTHEAST NORTH DAKOTA

CITY           SKY/WX    TMP DP  RH WIND       PRES   REMARKS
GRAND FORKS    CLEAR     22  19  89 N6        30.28R WCI  14
GRND FRKS AFB  CLEAR     23  15  72 N10       30.32S WCI  13
DEVILS LAKE    CLEAR     21  10  63 NE9       30.32S WCI  11
$$

NDZ022-023-025-028>030-036>039-047>053-170800-
SOUTHEAST NORTH DAKOTA

CITY           SKY/WX    TMP DP  RH WIND       PRES   REMARKS
FARGO          CLEAR     26  17  68 N6        30.26R WCI  19
JAMESTOWN      CLEAR     24  18  77 N9        30.27R WCI  14
$$




USA.gov is the U.S. government's official web portal to all federal, state and local government web resources and services.